Location: *
(48.8667°N, 2.3331°E)
Time: 17:44:35
(UTC+00:00)

STARLINK-1243 - Pass Details

Date: 09 April 2020
Orbit: 549 x 550 km, 53.0° (Epoch: 25 May)

Event Time Altitude Azimuth Distance (km) Brightness Sun altitude
Rises 19:13:01 0° 290° (WNW) 2,729 10.0 -6.9°
Reaches altitude 10° 19:15:17 10° 295° (WNW) 1,834 8.1 -7.3°
Maximum altitude 19:19:24 58° 15° (NNE) 647 4.0 -7.9°
Enters shadow 19:23:30 10° 95° (E) 1,827 5.7 -8.5°
